Other Surface Observations
Issued by NWS Charleston, SC

Home | Current Version | Previous Version | Text Only | Print | Product List | Glossary On
Versions: 1 2 3 4 5 6 7 8 9 10 11 12 13 14 15 16 17 18 19 20 21 22 23 24 25 26 27 28 29 30 31 32 33 34 35 36 37 38 39 40 41 42 43 44 45 46 47 48 49 50
482
SXUS52 KCHS 140828
OSOCHS

MARINE OBSERVATIONS
NATIONAL WEATHER SERVICE CHARLESTON SC
300 AM EST SUN FEB 14 2016

...DOWNTOWN CHARLESTON AND HARBOR...

CITY           SKY/WX    TMP DP  RH WIND       PRES   REMARKS
WATERFRONT PRK   N/A     35  23  61 N16       30.21F WCI  25

...LAKE MOULTRIE...

CITY           SKY/WX    TMP DP  RH WIND       PRES   REMARKS
PINOPOLIS        N/A     32  12  43 NE10      30.33R WCI  24

...LAKE AND SUPPLEMENTAL COASTAL OBSERVATIONS...

STATION/POSITION TIME  TEMP    WIND        PRES    WAVE   SWELL
                       AIR SEA DIR/SP/G            HT/PER HT/PER/DIR
                 (UTC) (F)     (DEG/KT/KT) (MB)    (FT/S) (FT/S/D)
FORT PULASKI     0800   42 51   30/ 13/ 17 1027.2F
SAPELO ISLAND    0800   39        CALM     1026.0F
WINYAH BAY       0700   31      20/  8     1028.0S
LAKE MURRAY      0800   28      50/  2/  5 1029.5R
ACE BASIN NERRS  0700   35      30/  4     1028.0R


...C-MAN AND BUOY OBSERVATIONS...

STATION/POSITION TIME  TEMP    WIND        PRES    WAVE   SWELL
                       AIR SEA DIR/SP/G            HT/PER HT/PER/DIR
                 (UTC) (F)     (DEG/KT/KT) (MB)    (FT/S) (FT/S/D)
BUOY 41004       0750   45 66   30/ 16/ 21 1027.1R   4/ 5   2/ 9
BUOY 41008       0750   49 53   70/  6/  8 1026.5F   2/ 6   2/ 70/ 6
FOLLY BEACH CMAN 0800   35      20/ 17/ 19 1028.4R
CAPERS NS BUOY   0708   38      30/ 21/ 25 1027.5R
FRIPP NS BUOY    0700   45      50/ 17/ 21 1026.4R
5E ST. MARYS GA  0721      55                N/A     2/ 6


STATION/POSITION TIME  TEMP    WIND        PRES    WAVE   SWELL
                       AIR SEA DIR/SP/G            HT/PER HT/PER/DIR
                 (UTC) (F)     (DEG/KT/KT) (MB)    (FT/S) (FT/S/D)
FRYING PAN BUOY  0800   38 62   10/ 19/ 25 1028.8R
BUOY 41025       0750   31 72  360/ 23/ 29 1028.4R   5/ 5   2/ 50/11
CAPE LOOKOUT NC  NOT AVBL
BUOY 41002       0750   48 68  350/ 19/ 23   N/A     8/ 8
BUOY 41010       0720   61 72              1023.7F
ST AUGUSTINE FL  0800   52 57   20/ 13/ 15 1026.0F

$$




USA.gov is the U.S. government's official web portal to all federal, state and local government web resources and services.